Tracking 30734 objects as of 25-Jun-2025
HD Live streaming from Space Station
objects crossing your sky now

EMISAT

Track EMISAT now!
10-day predictions


NORAD ID: 44078
Int'l Code: 2019-018A
Perigee: 740.5 km
Apogee: 765.8 km
Inclination: 98.3 °
Period: 99.7 minutes
Semi major axis: 7124 km
RCS: Unknown
Launch date: April 1, 2019
Source: India (IND)
Launch site: SRIHARIKOTA (SRI)

EMISAT is an Indian satellite featured with instrumentation to detect, locate and characterize electromagnetic signals, such as those transmitted by military radars.
Your satellite tracking list
Your tracking list is empty




NASA's NSSDC Master Catalog

Two Line Element Set (TLE):
1 44078U 19018A   25175.86053593  .00000159  00000-0  59005-4 0  9999
2 44078  98.2861 232.4449 0017732 210.8228 149.1923 14.43781184328508
Source of the keplerian elements: AFSPC